NORTHEAST SUFFOLK  -  Rip Current Statement Rip Current Statement        NORTHWEST SUFFOLK  -  Rip Current Statement Rip Current Statement        SOUTHEAST SUFFOLK  -  Rip Current Statement Rip Current Statement        SOUTHWEST SUFFOLK  -  Rip Current Statement Rip Current Statement      

Active alerts

Northwest Suffolk
  Details for Northwest Suffolk Rip Current Statement
Southwest Suffolk
  Details for Southwest Suffolk Rip Current Statement
Northeast Suffolk
  Details for Northeast Suffolk Rip Current Statement
Southeast Suffolk
  Details for Southeast Suffolk Rip Current Statement


WXM80 ListenWXM80 Stop

You find our weather info also at:

UK Metoffice

WeatherCloud

Weather Underground

Northeastern Weather Network

AWEKAS

Citizen Weather Observer Program (CWOP)

HAMweather, WeatherForYou, PWS Weather


Weather Underground History page Text

Daily Summary for February 23, 2018 Units:  English    Metric   Both
« Previous Day
Next Day »
Daily Weekly Monthly Yearly Custom
  High: Low: Average:
Temperature: 39.3 °F 35.6 °F 37 °F
Dew Point: 38.5 °F 33.4 °F 35.5 °F
Humidity: 98 % 89 % 94 %
Wind Speed: 9.4 mph 0.0 mph 3.7 mph
Wind Gust: 13.8 mph - -
Wind:- - East
Pressure: 30.43 in 29.91 in -
Precipitation: 0.08 in    
Historical Graphs
 
 
Tabular Data for February 23, 2018
Time Temperature Dew Point Pressure Wind Wind Speed Wind Gust Humidity Rainfall Rate (Hourly)
00:03 36.2 °F 34.4 °F 30.42 in NNE 6.4 mph 12.7 mph 93 % 0.00 in
00:08 36.2 °F 34.4 °F 30.42 in NE 4.6 mph 8.1 mph 93 % 0.00 in
00:13 36.1 °F 34.3 °F 30.41 in ENE 6.6 mph 11.5 mph 93 % 0.00 in
00:18 36.1 °F 34.3 °F 30.42 in ENE 3.6 mph 7.0 mph 93 % 0.00 in
00:23 36.1 °F 34.3 °F 30.42 in NE 6.3 mph 9.2 mph 93 % 0.00 in
00:28 36.1 °F 34.3 °F 30.42 in ENE 2.7 mph 11.5 mph 93 % 0.00 in
00:33 36.1 °F 34.3 °F 30.42 in NE 4.3 mph 7.0 mph 93 % 0.00 in
00:38 36.1 °F 34.3 °F 30.42 in NE 5.0 mph 8.1 mph 93 % 0.00 in
00:44 36.0 °F 34.2 °F 30.42 in East 7.7 mph 11.5 mph 93 % 0.00 in
00:48 36.0 °F 34.2 °F 30.43 in ENE 5.8 mph 9.2 mph 93 % 0.00 in
00:53 35.9 °F 33.8 °F 30.42 in ENE 5.6 mph 11.5 mph 92 % 0.00 in
00:58 35.9 °F 33.8 °F 30.43 in NE 3.6 mph 5.8 mph 92 % 0.00 in
01:03 35.9 °F 34.1 °F 30.42 in ENE 5.0 mph 11.0 mph 93 % 0.00 in
01:08 35.8 °F 33.7 °F 30.42 in ENE 7.7 mph 10.0 mph 92 % 0.00 in
01:13 35.8 °F 33.7 °F 30.43 in ENE 4.7 mph 12.0 mph 92 % 0.00 in
01:18 35.7 °F 33.6 °F 30.43 in NE 3.9 mph 6.9 mph 92 % 0.00 in
01:23 35.7 °F 33.6 °F 30.42 in ENE 5.8 mph 8.1 mph 92 % 0.00 in
01:28 35.7 °F 33.6 °F 30.42 in ENE 7.9 mph 12.0 mph 92 % 0.00 in
01:33 35.7 °F 33.6 °F 30.42 in East 6.3 mph 13.8 mph 92 % 0.00 in
01:38 35.7 °F 33.6 °F 30.42 in ENE 5.2 mph 10.4 mph 92 % 0.00 in
01:43 35.7 °F 33.6 °F 30.42 in ENE 6.3 mph 9.2 mph 92 % 0.00 in
01:48 35.7 °F 33.6 °F 30.42 in ENE 6.4 mph 10.4 mph 92 % 0.00 in
01:53 35.7 °F 33.6 °F 30.42 in NE 2.9 mph 5.0 mph 92 % 0.00 in
01:58 35.7 °F 33.6 °F 30.43 in ENE 5.6 mph 8.1 mph 92 % 0.00 in
02:03 35.7 °F 33.6 °F 30.43 in NE 5.0 mph 9.2 mph 92 % 0.00 in
02:09 35.7 °F 33.6 °F 30.42 in ENE 5.9 mph 9.2 mph 92 % 0.00 in
02:14 35.7 °F 33.6 °F 30.42 in ENE 3.7 mph 10.4 mph 92 % 0.00 in
02:19 35.7 °F 33.6 °F 30.42 in ENE 6.1 mph 10.4 mph 92 % 0.00 in
02:24 35.6 °F 33.5 °F 30.41 in ENE 4.7 mph 9.2 mph 92 % 0.00 in
02:29 35.7 °F 33.6 °F 30.42 in ENE 3.8 mph 6.9 mph 92 % 0.00 in
02:34 35.7 °F 33.6 °F 30.41 in ENE 6.7 mph 9.2 mph 92 % 0.00 in
02:39 35.7 °F 33.6 °F 30.40 in ENE 8.5 mph 11.5 mph 92 % 0.00 in
02:44 35.7 °F 33.6 °F 30.39 in ENE 6.3 mph 9.2 mph 92 % 0.00 in
02:49 35.7 °F 33.6 °F 30.40 in ENE 6.0 mph 8.1 mph 92 % 0.00 in
02:54 35.7 °F 33.6 °F 30.39 in ENE 6.9 mph 10.0 mph 92 % 0.00 in
02:59 35.8 °F 33.7 °F 30.38 in ENE 5.4 mph 10.4 mph 92 % 0.00 in
03:04 35.8 °F 33.7 °F 30.39 in NE 6.2 mph 9.2 mph 92 % 0.00 in
03:09 35.8 °F 33.7 °F 30.39 in East 5.3 mph 7.0 mph 92 % 0.00 in
03:14 35.9 °F 33.8 °F 30.40 in ENE 3.8 mph 5.0 mph 92 % 0.00 in
03:19 35.9 °F 33.8 °F 30.40 in East 4.2 mph 7.0 mph 92 % 0.00 in
03:24 35.9 °F 33.8 °F 30.39 in ENE 4.4 mph 7.0 mph 92 % 0.00 in
03:29 36.0 °F 33.9 °F 30.39 in East 4.2 mph 8.1 mph 92 % 0.00 in
03:34 36.0 °F 33.9 °F 30.39 in ENE 3.9 mph 7.0 mph 92 % 0.00 in
03:39 36.0 °F 34.2 °F 30.40 in ENE 4.0 mph 6.9 mph 93 % 0.00 in
03:44 36.0 °F 33.9 °F 30.40 in ENE 5.4 mph 6.9 mph 92 % 0.00 in
03:49 36.0 °F 33.9 °F 30.40 in NE 5.0 mph 8.1 mph 92 % 0.00 in
03:54 36.0 °F 33.9 °F 30.40 in ENE 4.3 mph 8.1 mph 92 % 0.00 in
04:00 36.0 °F 34.2 °F 30.40 in ENE 3.6 mph 4.6 mph 93 % 0.00 in
04:05 36.0 °F 33.9 °F 30.40 in ENE 5.0 mph 7.0 mph 92 % 0.00 in
04:10 36.0 °F 33.9 °F 30.39 in East 4.1 mph 5.0 mph 92 % 0.00 in
04:15 36.0 °F 33.9 °F 30.40 in ENE 6.2 mph 8.1 mph 92 % 0.00 in
04:20 36.0 °F 33.9 °F 30.41 in ENE 4.9 mph 7.0 mph 92 % 0.00 in
04:25 36.0 °F 33.9 °F 30.41 in ENE 6.1 mph 8.1 mph 92 % 0.00 in
04:30 36.0 °F 33.9 °F 30.40 in ENE 5.0 mph 6.9 mph 92 % 0.00 in
04:35 36.0 °F 33.9 °F 30.41 in ENE 4.4 mph 6.9 mph 92 % 0.00 in
04:40 36.0 °F 34.2 °F 30.41 in ENE 6.8 mph 9.2 mph 93 % 0.00 in
04:45 36.0 °F 34.2 °F 30.40 in ENE 4.5 mph 6.9 mph 93 % 0.00 in
04:50 36.0 °F 33.9 °F 30.41 in ENE 4.0 mph 4.6 mph 92 % 0.00 in
04:55 36.0 °F 33.9 °F 30.41 in ENE 4.4 mph 4.6 mph 92 % 0.00 in
05:00 36.0 °F 34.2 °F 30.40 in ENE 4.7 mph 6.9 mph 93 % 0.00 in
05:05 36.0 °F 34.2 °F 30.40 in ENE 5.1 mph 8.0 mph 93 % 0.00 in
05:10 36.1 °F 34.3 °F 30.41 in ENE 7.0 mph 10.4 mph 93 % 0.00 in
05:15 36.0 °F 33.9 °F 30.40 in ENE 8.1 mph 10.4 mph 92 % 0.00 in
05:20 36.0 °F 33.9 °F 30.40 in ENE 7.0 mph 10.0 mph 92 % 0.00 in
05:25 36.0 °F 33.9 °F 30.40 in ENE 6.0 mph 10.0 mph 92 % 0.00 in
05:30 35.9 °F 33.8 °F 30.40 in ENE 6.0 mph 9.0 mph 92 % 0.00 in
05:35 35.9 °F 33.8 °F 30.40 in ENE 5.7 mph 11.5 mph 92 % 0.00 in
05:40 35.9 °F 33.8 °F 30.40 in ENE 7.0 mph 9.0 mph 92 % 0.00 in
05:45 35.9 °F 33.8 °F 30.40 in ENE 6.0 mph 10.0 mph 92 % 0.00 in
05:50 35.9 °F 33.8 °F 30.40 in ENE 6.0 mph 12.0 mph 92 % 0.00 in
05:55 35.8 °F 33.4 °F 30.39 in East 6.6 mph 8.0 mph 91 % 0.00 in
06:01 35.8 °F 33.4 °F 30.39 in East 5.9 mph 9.2 mph 91 % 0.00 in
06:06 35.8 °F 33.4 °F 30.39 in East 5.7 mph 8.1 mph 91 % 0.00 in
06:11 35.8 °F 33.4 °F 30.39 in ENE 5.8 mph 7.0 mph 91 % 0.00 in
06:16 35.8 °F 33.4 °F 30.40 in ENE 7.0 mph 10.0 mph 91 % 0.00 in
06:21 35.8 °F 33.4 °F 30.39 in ENE 6.3 mph 10.4 mph 91 % 0.00 in
06:26 35.9 °F 33.5 °F 30.39 in East 6.5 mph 8.1 mph 91 % 0.00 in
06:31 35.9 °F 33.5 °F 30.40 in East 7.0 mph 9.2 mph 91 % 0.00 in
06:36 35.9 °F 33.5 °F 30.39 in ENE 5.3 mph 9.2 mph 91 % 0.00 in
06:41 35.9 °F 33.5 °F 30.39 in ENE 5.0 mph 10.4 mph 91 % 0.00 in
06:46 35.9 °F 33.5 °F 30.39 in ENE 5.2 mph 8.1 mph 91 % 0.00 in
06:51 35.9 °F 33.5 °F 30.39 in ENE 9.0 mph 11.5 mph 91 % 0.00 in
06:56 35.9 °F 33.5 °F 30.39 in ENE 8.8 mph 12.0 mph 91 % 0.00 in
07:01 35.9 °F 33.5 °F 30.39 in ENE 7.5 mph 10.0 mph 91 % 0.00 in
07:06 36.0 °F 33.6 °F 30.39 in ENE 6.3 mph 8.1 mph 91 % 0.00 in
07:11 36.0 °F 33.6 °F 30.39 in ENE 7.7 mph 9.0 mph 91 % 0.00 in
07:17 36.1 °F 33.7 °F 30.39 in East 8.6 mph 11.5 mph 91 % 0.00 in
07:22 36.1 °F 33.7 °F 30.39 in ENE 6.7 mph 11.5 mph 91 % 0.00 in
07:27 36.1 °F 34.0 °F 30.39 in East 7.4 mph 10.4 mph 92 % 0.00 in
07:32 36.0 °F 33.9 °F 30.39 in ENE 7.5 mph 11.5 mph 92 % 0.00 in
07:37 36.0 °F 33.9 °F 30.39 in ENE 7.7 mph 10.4 mph 92 % 0.00 in
07:42 36.0 °F 33.9 °F 30.39 in ENE 7.0 mph 8.1 mph 92 % 0.00 in
07:47 36.0 °F 33.9 °F 30.39 in East 7.5 mph 11.5 mph 92 % 0.00 in
07:52 36.0 °F 33.9 °F 30.39 in ENE 9.4 mph 11.5 mph 92 % 0.00 in
07:57 36.1 °F 33.7 °F 30.37 in ENE 9.3 mph 12.7 mph 91 % 0.00 in
08:02 36.2 °F 33.8 °F 30.38 in NE 7.4 mph 8.1 mph 91 % 0.00 in
08:07 36.3 °F 33.9 °F 30.38 in East 9.1 mph 9.2 mph 91 % 0.00 in
08:13 36.4 °F 34.0 °F 30.38 in NE 7.4 mph 10.4 mph 91 % 0.00 in
08:18 36.4 °F 34.0 °F 30.39 in East 9.2 mph 13.8 mph 91 % 0.00 in
08:23 36.4 °F 34.0 °F 30.38 in East 8.4 mph 10.4 mph 91 % 0.00 in
08:28 36.4 °F 34.0 °F 30.38 in East 7.4 mph 8.1 mph 91 % 0.00 in
08:33 36.4 °F 34.0 °F 30.39 in ENE 7.4 mph 10.4 mph 91 % 0.00 in
08:38 36.5 °F 34.1 °F 30.39 in East 7.1 mph 9.2 mph 91 % 0.00 in
08:43 36.5 °F 34.1 °F 30.37 in East 7.0 mph 9.2 mph 91 % 0.00 in
08:48 36.6 °F 34.2 °F 30.37 in East 6.9 mph 10.4 mph 91 % 0.00 in
08:53 36.7 °F 34.3 °F 30.39 in East 5.4 mph 6.9 mph 91 % 0.00 in
08:58 36.8 °F 34.4 °F 30.37 in ENE 6.1 mph 9.2 mph 91 % 0.00 in
09:03 36.9 °F 34.5 °F 30.38 in East 6.2 mph 8.1 mph 91 % 0.00 in
09:08 36.9 °F 34.2 °F 30.37 in East 5.2 mph 9.0 mph 90 % 0.00 in
09:13 36.9 °F 34.2 °F 30.37 in East 4.7 mph 6.9 mph 90 % 0.00 in
09:18 37.0 °F 34.3 °F 30.38 in East 5.0 mph 6.9 mph 90 % 0.00 in
09:23 37.0 °F 34.3 °F 30.38 in ENE 5.3 mph 8.1 mph 90 % 0.00 in
09:28 37.0 °F 34.3 °F 30.38 in ENE 4.0 mph 5.8 mph 90 % 0.00 in
09:33 37.0 °F 34.3 °F 30.38 in ENE 5.6 mph 8.0 mph 90 % 0.00 in
09:38 37.0 °F 34.3 °F 30.38 in ENE 2.7 mph 4.0 mph 90 % 0.00 in
09:44 37.1 °F 34.4 °F 30.38 in East 5.5 mph 7.0 mph 90 % 0.00 in
09:49 37.1 °F 34.4 °F 30.37 in East 3.8 mph 5.8 mph 90 % 0.00 in
09:54 37.2 °F 34.5 °F 30.38 in East 3.4 mph 5.8 mph 90 % 0.00 in
09:59 37.2 °F 34.5 °F 30.38 in ENE 2.6 mph 4.6 mph 90 % 0.00 in
10:04 37.2 °F 34.3 °F 30.38 in East 1.4 mph 4.6 mph 89 % 0.00 in
10:09 37.2 °F 34.3 °F 30.38 in East 2.9 mph 5.8 mph 89 % 0.00 in
10:14 37.3 °F 34.4 °F 30.39 in East 2.4 mph 3.5 mph 89 % 0.00 in
10:19 37.4 °F 34.7 °F 30.37 in East 2.5 mph 3.5 mph 90 % 0.00 in
10:24 37.4 °F 34.7 °F 30.37 in ENE 3.9 mph 5.8 mph 90 % 0.00 in
10:29 37.5 °F 35.1 °F 30.36 in ENE 3.9 mph 7.0 mph 91 % 0.00 in
10:34 37.5 °F 35.1 °F 30.36 in ENE 6.2 mph 8.1 mph 91 % 0.00 in
10:39 37.3 °F 34.9 °F 30.35 in East 4.4 mph 6.0 mph 91 % 0.00 in
10:44 37.3 °F 35.2 °F 30.35 in ENE 5.8 mph 7.0 mph 92 % 0.00 in
10:49 37.2 °F 35.1 °F 30.35 in East 3.9 mph 6.9 mph 92 % 0.00 in
10:54 37.1 °F 35.0 °F 30.35 in ENE 4.8 mph 8.1 mph 92 % 0.00 in
10:59 36.9 °F 35.1 °F 30.35 in ENE 6.6 mph 9.2 mph 93 % 0.00 in
11:04 36.7 °F 34.9 °F 30.35 in ENE 4.7 mph 8.1 mph 93 % 0.00 in
11:09 36.7 °F 34.9 °F 30.34 in ENE 7.0 mph 10.4 mph 93 % 0.00 in
11:14 36.7 °F 35.1 °F 30.34 in East 6.0 mph 9.2 mph 94 % 0.00 in
11:20 36.8 °F 35.2 °F 30.34 in ENE 3.9 mph 4.0 mph 94 % 0.00 in
11:25 36.8 °F 35.2 °F 30.34 in ENE 4.8 mph 8.1 mph 94 % 0.00 in
11:30 36.8 °F 35.2 °F 30.33 in ENE 6.2 mph 8.1 mph 94 % 0.00 in
11:35 36.7 °F 35.1 °F 30.32 in NE 5.0 mph 9.0 mph 94 % 0.00 in
11:40 36.8 °F 35.2 °F 30.32 in ENE 4.8 mph 8.1 mph 94 % 0.00 in
11:45 36.8 °F 35.2 °F 30.32 in ENE 3.5 mph 5.0 mph 94 % 0.00 in
11:50 36.9 °F 35.3 °F 30.32 in ENE 6.7 mph 9.2 mph 94 % 0.00 in
11:55 36.8 °F 35.2 °F 30.31 in ENE 7.1 mph 10.4 mph 94 % 0.00 in
12:00 36.7 °F 35.4 °F 30.31 in ENE 4.3 mph 8.1 mph 95 % 0.00 in
12:05 36.7 °F 35.4 °F 30.31 in ENE 4.5 mph 6.9 mph 95 % 0.00 in
12:10 36.8 °F 35.5 °F 30.31 in ENE 2.9 mph 4.6 mph 95 % 0.00 in
12:15 36.9 °F 35.6 °F 30.30 in ENE 5.1 mph 9.2 mph 95 % 0.00 in
12:20 36.9 °F 35.6 °F 30.29 in ENE 3.6 mph 6.9 mph 95 % 0.00 in
12:25 37.0 °F 35.7 °F 30.28 in ENE 5.1 mph 8.1 mph 95 % 0.00 in
12:30 37.1 °F 35.8 °F 30.28 in East 4.0 mph 6.9 mph 95 % 0.00 in
12:35 37.1 °F 35.8 °F 30.27 in ENE 4.9 mph 9.2 mph 95 % 0.00 in
12:40 37.2 °F 35.9 °F 30.27 in ENE 5.4 mph 6.9 mph 95 % 0.00 in
12:46 37.2 °F 35.9 °F 30.27 in ENE 6.0 mph 9.0 mph 95 % 0.00 in
12:51 37.2 °F 35.9 °F 30.27 in ENE 6.0 mph 12.0 mph 95 % 0.00 in
12:56 37.2 °F 35.9 °F 30.26 in ENE 7.0 mph 10.0 mph 95 % 0.00 in
13:01 37.2 °F 35.9 °F 30.26 in ENE 7.5 mph 9.2 mph 95 % 0.00 in
13:06 37.2 °F 35.9 °F 30.26 in NE 4.4 mph 8.1 mph 95 % 0.00 in
13:11 37.2 °F 35.9 °F 30.26 in NE 6.1 mph 9.2 mph 95 % 0.00 in
13:16 37.3 °F 36.0 °F 30.25 in ENE 7.5 mph 10.4 mph 95 % 0.00 in
13:21 37.2 °F 35.9 °F 30.24 in ENE 6.6 mph 10.4 mph 95 % 0.00 in
13:26 37.2 °F 35.9 °F 30.23 in ENE 6.4 mph 10.4 mph 95 % 0.00 in
13:31 37.3 °F 36.0 °F 30.23 in ENE 6.6 mph 11.5 mph 95 % 0.00 in
13:36 37.3 °F 36.0 °F 30.23 in East 5.1 mph 9.0 mph 95 % 0.00 in
13:41 37.3 °F 36.0 °F 30.22 in ENE 5.4 mph 8.1 mph 95 % 0.00 in
13:46 37.4 °F 36.1 °F 30.22 in ENE 3.9 mph 5.8 mph 95 % 0.00 in
13:51 37.5 °F 36.2 °F 30.23 in East 4.4 mph 6.9 mph 95 % 0.00 in
13:56 37.5 °F 36.2 °F 30.23 in ENE 3.8 mph 6.9 mph 95 % 0.00 in
14:02 37.5 °F 36.2 °F 30.23 in East 6.3 mph 9.2 mph 95 % 0.00 in
14:07 37.4 °F 36.1 °F 30.21 in East 5.8 mph 8.1 mph 95 % 0.00 in
14:12 37.5 °F 36.2 °F 30.21 in ENE 5.0 mph 6.9 mph 95 % 0.00 in
14:17 37.5 °F 36.2 °F 30.21 in ENE 6.6 mph 9.2 mph 95 % 0.00 in
14:22 37.4 °F 36.1 °F 30.21 in East 4.9 mph 7.0 mph 95 % 0.00 in
14:27 37.3 °F 36.3 °F 30.21 in ENE 5.0 mph 6.9 mph 96 % 0.00 in
14:32 37.3 °F 36.3 °F 30.21 in ENE 7.2 mph 10.4 mph 96 % 0.00 in
14:37 37.3 °F 36.3 °F 30.21 in ENE 3.1 mph 4.6 mph 96 % 0.00 in
14:42 37.3 °F 36.3 °F 30.21 in ENE 3.4 mph 5.0 mph 96 % 0.00 in
14:47 37.3 °F 36.3 °F 30.20 in ENE 4.5 mph 8.1 mph 96 % 0.00 in
14:52 37.3 °F 36.3 °F 30.18 in East 5.6 mph 8.1 mph 96 % 0.00 in
14:57 37.4 °F 36.4 °F 30.17 in East 3.9 mph 8.1 mph 96 % 0.00 in
15:02 37.5 °F 36.5 °F 30.18 in East 4.3 mph 6.9 mph 96 % 0.00 in
15:07 37.5 °F 36.5 °F 30.18 in ENE 4.5 mph 6.9 mph 96 % 0.00 in
15:12 37.5 °F 36.5 °F 30.18 in ENE 2.4 mph 3.5 mph 96 % 0.00 in
15:17 37.6 °F 36.6 °F 30.17 in East 5.8 mph 6.9 mph 96 % 0.00 in
15:22 37.6 °F 36.6 °F 30.17 in East 4.1 mph 6.0 mph 96 % 0.00 in
15:27 37.6 °F 36.6 °F 30.15 in East 1.3 mph 4.6 mph 96 % 0.00 in
15:32 37.7 °F 36.7 °F 30.15 in East 2.5 mph 4.6 mph 96 % 0.00 in
15:37 37.7 °F 36.7 °F 30.14 in ENE 3.1 mph 4.6 mph 96 % 0.00 in
15:42 37.8 °F 37.0 °F 30.12 in East 5.1 mph 6.9 mph 97 % 0.00 in
15:48 37.8 °F 37.0 °F 30.13 in ENE 3.4 mph 5.0 mph 97 % 0.00 in
15:53 37.9 °F 37.1 °F 30.16 in ENE 0.4 mph 1.0 mph 97 % 0.00 in
15:58 37.9 °F 37.1 °F 30.17 in NE 0.3 mph 3.5 mph 97 % 0.00 in
16:03 37.9 °F 37.1 °F 30.16 in NE 0.9 mph 1.2 mph 97 % 0.00 in
16:08 37.9 °F 37.1 °F 30.15 in ENE 2.8 mph 3.5 mph 97 % 0.00 in
16:13 37.9 °F 37.1 °F 30.15 in ENE 2.4 mph 3.5 mph 97 % 0.00 in
16:18 37.8 °F 37.0 °F 30.14 in ENE 3.2 mph 4.6 mph 97 % 0.00 in
16:23 37.8 °F 37.0 °F 30.14 in ENE 2.7 mph 3.5 mph 97 % 0.00 in
16:28 37.7 °F 36.9 °F 30.13 in ENE 1.6 mph 3.5 mph 97 % 0.00 in
16:33 37.7 °F 36.9 °F 30.12 in ENE 2.9 mph 4.6 mph 97 % 0.00 in
16:38 37.8 °F 37.0 °F 30.12 in East 1.6 mph 3.5 mph 97 % 0.00 in
16:43 37.8 °F 37.0 °F 30.13 in East 0.9 mph 2.3 mph 97 % 0.00 in
16:48 37.8 °F 37.0 °F 30.13 in ENE 1.6 mph 3.5 mph 97 % 0.00 in
16:53 37.8 °F 37.0 °F 30.13 in NNE 2.2 mph 3.5 mph 97 % 0.00 in
16:58 37.9 °F 37.1 °F 30.14 in NNE 0.8 mph 2.3 mph 97 % 0.00 in
17:03 37.9 °F 37.1 °F 30.13 in NNE 1.0 mph 2.3 mph 97 % 0.00 in
17:08 37.9 °F 37.1 °F 30.12 in Calm     97 % 0.00 in
17:13 37.9 °F 37.1 °F 30.12 in Calm     97 % 0.00 in
17:18 37.9 °F 37.1 °F 30.11 in NE 0.7 mph 3.5 mph 97 % 0.00 in
17:23 37.9 °F 37.1 °F 30.10 in NE 1.2 mph 1.2 mph 97 % 0.00 in
17:28 37.9 °F 37.1 °F 30.10 in Calm   2.3 mph 97 % 0.00 in
17:33 37.9 °F 37.1 °F 30.09 in NE 0.1 mph 1.2 mph 97 % 0.00 in
17:39 37.9 °F 37.1 °F 30.09 in Calm   1.2 mph 97 % 0.00 in
17:44 37.9 °F 37.1 °F 30.08 in Calm   1.2 mph 97 % 0.00 in
17:49 37.9 °F 37.1 °F 30.08 in Calm     97 % 0.00 in
17:54 37.9 °F 37.1 °F 30.08 in Calm     97 % 0.00 in
17:59 37.9 °F 37.1 °F 30.08 in Calm     97 % 0.00 in
18:04 37.9 °F 37.1 °F 30.08 in NE 0.5 mph 3.5 mph 97 % 0.00 in
18:09 38.0 °F 37.2 °F 30.08 in Calm     97 % 0.00 in
18:14 38.0 °F 37.2 °F 30.09 in Calm   1.2 mph 97 % 0.00 in
18:19 38.1 °F 37.3 °F 30.09 in Calm   3.5 mph 97 % 0.00 in
18:24 38.1 °F 37.3 °F 30.10 in Calm     97 % 0.00 in
18:29 38.1 °F 37.3 °F 30.09 in Calm     97 % 0.02 in
18:34 38.1 °F 37.3 °F 30.08 in Calm     97 % 0.03 in
18:39 38.1 °F 37.3 °F 30.08 in Calm     97 % 0.05 in
18:44 38.0 °F 37.2 °F 30.07 in Calm     97 % 0.07 in
18:49 38.0 °F 37.2 °F 30.06 in Calm     97 % 0.07 in
18:54 38.0 °F 37.2 °F 30.06 in Calm     97 % 0.08 in
18:59 38.0 °F 37.2 °F 30.05 in Calm     97 % 0.08 in
19:04 37.9 °F 37.1 °F 30.05 in Calm     97 % 0.08 in
19:09 37.9 °F 37.1 °F 30.05 in Calm     97 % 0.08 in
19:14 37.9 °F 37.1 °F 30.04 in Calm     97 % 0.08 in
19:20 37.9 °F 37.1 °F 30.05 in NNE 0.2 mph 1.2 mph 97 % 0.08 in
19:25 37.9 °F 37.1 °F 30.05 in Calm     97 % 0.08 in
19:30 37.9 °F 37.1 °F 30.05 in Calm     97 % 0.06 in
19:35 37.9 °F 37.1 °F 30.04 in Calm     97 % 0.04 in
19:40 37.9 °F 37.1 °F 30.03 in Calm     97 % 0.02 in
19:45 37.9 °F 37.1 °F 30.02 in Calm     97 % 0.01 in
19:50 37.9 °F 37.1 °F 30.02 in Calm     97 % 0.00 in
19:55 37.9 °F 37.1 °F 30.01 in Calm     97 % 0.00 in
20:00 37.9 °F 37.1 °F 30.00 in Calm     97 % 0.00 in
20:05 37.9 °F 37.1 °F 30.00 in Calm     97 % 0.00 in
20:10 37.8 °F 37.0 °F 30.01 in NNE 0.3 mph 2.3 mph 97 % 0.00 in
20:15 37.9 °F 37.1 °F 30.01 in NNW 0.5 mph 2.3 mph 97 % 0.00 in
20:20 37.9 °F 37.1 °F 30.01 in NNW 0.3 mph 3.5 mph 97 % 0.00 in
20:25 37.8 °F 37.0 °F 30.00 in Calm   3.5 mph 97 % 0.00 in
20:31 37.8 °F 37.0 °F 30.00 in Calm   1.0 mph 97 % 0.00 in
20:36 37.8 °F 37.0 °F 30.00 in Calm     97 % 0.00 in
20:41 37.7 °F 37.0 °F 30.00 in Calm   1.0 mph 97 % 0.00 in
20:46 37.7 °F 36.9 °F 30.00 in Calm   2.0 mph 97 % 0.00 in
20:51 37.7 °F 36.9 °F 30.00 in Calm     97 % 0.00 in
20:56 37.7 °F 36.9 °F 30.00 in NW 1.0 mph 3.0 mph 97 % 0.00 in
21:01 37.7 °F 36.9 °F 30.01 in Calm   1.2 mph 97 % 0.00 in
21:06 37.6 °F 36.8 °F 30.00 in NW 1.0 mph 4.0 mph 97 % 0.00 in
21:11 37.6 °F 36.8 °F 30.00 in Calm   2.0 mph 97 % 0.00 in
21:16 37.5 °F 36.7 °F 30.00 in WNW 0.7 mph 3.5 mph 97 % 0.00 in
21:21 37.5 °F 36.7 °F 29.99 in Calm   3.0 mph 97 % 0.00 in
21:26 37.5 °F 36.7 °F 29.99 in Calm   1.0 mph 97 % 0.00 in
21:31 37.5 °F 36.7 °F 29.99 in Calm   2.0 mph 97 % 0.00 in
21:36 37.5 °F 36.7 °F 29.98 in Calm   1.0 mph 97 % 0.00 in
21:41 37.5 °F 36.7 °F 29.97 in Calm   2.3 mph 97 % 0.00 in
21:46 37.5 °F 36.7 °F 29.96 in WNW 1.0 mph 3.0 mph 97 % 0.00 in
21:51 37.5 °F 36.7 °F 29.97 in West 1.0 mph 4.0 mph 97 % 0.00 in
21:56 37.6 °F 36.8 °F 29.96 in West 1.0 mph 3.0 mph 97 % 0.00 in
22:01 37.7 °F 36.9 °F 29.95 in West 0.6 mph 3.5 mph 97 % 0.00 in
22:06 37.7 °F 36.9 °F 29.95 in Calm     97 % 0.00 in
22:11 37.7 °F 36.9 °F 29.94 in Calm     97 % 0.00 in
22:13 37.7 °F 36.9 °F 29.95 in Calm     97 % 0.00 in
22:18 37.8 °F 37.0 °F 29.95 in West 0.1 mph 1.2 mph 97 % 0.00 in
22:23 37.8 °F 37.0 °F 29.95 in Calm     97 % 0.00 in
22:28 37.9 °F 37.1 °F 29.95 in Calm   1.2 mph 97 % 0.00 in
22:33 38.0 °F 37.2 °F 29.94 in West 0.8 mph 3.5 mph 97 % 0.00 in
22:38 38.0 °F 37.2 °F 29.94 in West 0.3 mph 2.0 mph 97 % 0.00 in
22:43 38.1 °F 37.3 °F 29.93 in West 0.2 mph   97 % 0.00 in
22:48 38.2 °F 37.4 °F 29.94 in West 1.6 mph 2.3 mph 97 % 0.00 in
22:53 38.2 °F 37.4 °F 29.93 in Calm     97 % 0.00 in
22:58 38.3 °F 37.5 °F 29.93 in Calm     97 % 0.00 in
23:03 38.4 °F 37.6 °F 29.93 in West 0.6 mph 2.3 mph 97 % 0.00 in
23:08 38.4 °F 37.6 °F 29.93 in WSW 0.3 mph 3.5 mph 97 % 0.00 in
23:14 38.5 °F 37.7 °F 29.93 in WSW 0.3 mph 1.2 mph 97 % 0.00 in
23:19 38.6 °F 37.8 °F 29.93 in WSW 0.8 mph 2.3 mph 97 % 0.00 in
23:24 38.7 °F 37.9 °F 29.93 in WSW 1.0 mph 2.3 mph 97 % 0.00 in
23:29 38.8 °F 38.3 °F 29.92 in Calm     98 % 0.00 in
23:34 38.9 °F 38.4 °F 29.92 in Calm   1.2 mph 98 % 0.00 in
23:39 39.0 °F 38.5 °F 29.92 in WSW 0.9 mph 3.0 mph 98 % 0.00 in
23:44 39.1 °F 38.3 °F 29.91 in Calm     97 % 0.00 in
23:49 39.2 °F 38.4 °F 29.92 in Calm   1.2 mph 97 % 0.00 in
23:54 39.2 °F 38.4 °F 29.91 in Calm     97 % 0.00 in
23:59 39.3 °F 38.5 °F 29.91 in Calm     97 % 0.00 in
Crab Meadow Weather
Compliments of Weather Underground - 3 mb

Script developed by  Jim McMurry - jmcmurry@mwt.net Adapted for the template by  Wim van der Kuil - Leuven-Template.eu

Weather Terms: Flash Flood Warning - Flash flooding is occurring, imminent or highly likely. A flash flood is a flood that occurs within 6 hours of excessive rainfall and that poses a threat to life and/or property. Ice jams and dam failures can also cause flash floods. These warnings are issued on a county by county basis by the local Weather Forecast Office in Upton and are generally in effect for up to 6 hours.